STARLINK-4525 (53401 NORAD) Tracking and Keplerian Element Data

This shows tracking and keplerian element data for the satellite.

Feedback or suggestion? Click here.




ElementValue
Catalog53401
NameSTARLINK-4525
Epoch Orbit1618
Epoch Day325.17347742
Epoch Year2022
RAAN131.4023
Inclination53.2179
Eccentricity0.0001917
Argument of Perigee44.1886
Mean Anonmoly315.9259
Mean Motion15.08844023
Decay Rate-2.968E-05
L11 53401U 22097P 22325.17347742 -.00002968 00000+0 -16845-3 0 9995
L22 53401 53.2179 131.4023 0001917 44.1886 315.9259 15.08844023 16180



Live tracking and technical data element details for STARLINK-4525 (NORAD 53401). STARLINK-4525 can be tracked NOW for your location showing map with azimuth and elevation plus other details from your city location.







IsCatalogInMostPopularTable: catalog: 53401, numindb: 6
Update: records affected: 1



GetName: 53401 STARLINK-4525

Hit Count: updated at: Thu, 08 Dec 2022 19:29:49 GMT